LB9CG Weather Reports


Display with metric or nautical units.
time (UTC)temp
F
wind
direction
speed
MPH
gust
MPH
rain 1hr
in
rain 24hr
in
rain mn
in
humidity
%
barometer
mb
20260508080016 49 135 3.0 7.0 0.00 0.00 0.00 55 1018.7
20260508075016 48 90 2.0 5.0 0.00 0.00 0.00 57 1018.8
20260508074036 48 90 3.0 6.0 0.00 0.00 0.00 60 1018.9
20260508073015 48 90 2.0 5.0 0.00 0.00 0.00 62 1018.9
20260508072015 47 90 4.0 10.0 0.00 0.00 0.00 62 1019.0
20260508071036 47 90 3.0 8.0 0.00 0.00 0.00 64 1019.0
20260508070016 47 90 3.0 6.0 0.00 0.00 0.00 66 1019.1
20260508065015 46 90 3.0 5.0 0.00 0.00 0.00 66 1019.0
20260508064057 46 68 2.0 6.0 0.00 0.00 0.00 67 1019.2
20260508063015 45 90 5.0 10.0 0.00 0.00 0.00 68 1019.2
20260508062015 45 90 3.0 7.0 0.00 0.00 0.00 70 1019.1
20260508061015 44 90 4.0 7.0 0.00 0.00 0.00 72 1019.2
20260508060035 43 90 5.0 9.0 0.00 0.00 0.00 74 1019.2
20260508055036 43 90 4.0 7.0 0.00 0.00 0.00 74 1019.2
20260508054036 43 90 3.0 6.0 0.00 0.00 0.00 77 1019.2
20260508053058 42 90 3.0 6.0 0.00 0.00 0.00 80 1019.4
20260508052017 41 90 4.0 7.0 0.00 0.00 0.00 87 1019.5
20260508051017 40 90 3.0 5.0 0.00 0.00 0.00 91 1019.4
20260508050017 40 90 1.0 3.0 0.00 0.00 0.00 92 1019.4
20260508045017 40 0.0 0.0 0.00 0.00 0.00 94 1019.4
20260508044017 39 0.0 0.0 0.00 0.00 0.00 94 1019.5
20260508043017 38 0.0 0.0 0.00 0.00 0.00 94 1019.4
20260508042017 37 0.0 1.0 0.00 0.00 0.00 95 1019.4
20260508041037 37 0.0 0.0 0.00 0.00 0.00 94 1019.5
20260508040017 36 0.0 0.0 0.00 0.00 0.00 95 1019.6
20260508035017 34 0.0 0.0 0.00 0.00 0.00 97 1019.7
20260508034017 32 0.0 0.0 0.00 0.00 0.00 97 1019.8
20260508033017 32 0.0 0.0 0.00 0.00 0.00 98 1019.7
20260508032037 31 0.0 0.0 0.00 0.00 0.00 97 1019.7
20260508031017 31 0.0 0.0 0.00 0.00 0.00 97 1019.8
20260508030017 31 0.0 1.0 0.00 0.00 0.00 97 1019.8
20260508025017 31 0.0 0.0 0.00 0.00 0.00 97 1019.8
20260508024017 31 0.0 0.0 0.00 0.00 0.00 97 1019.8
20260508023017 31 0.0 1.0 0.00 0.00 0.00 98 1019.7
20260508022017 31 0.0 1.0 0.00 0.00 0.00 97 1019.8
20260508021037 31 0.0 0.0 0.00 0.00 0.00 97 1019.7
20260508020017 31 0.0 0.0 0.00 0.00 0.00 97 1019.8
20260508015017 32 0.0 1.0 0.00 0.00 0.00 98 1019.8
20260508014017 32 0.0 1.0 0.00 0.00 0.00 97 1019.7
20260508013017 32 0.0 0.0 0.00 0.00 0.00 97 1019.8
20260508012017 31 0.0 1.0 0.00 0.00 0.00 97 1019.8
20260508011016 31 0.0 2.0 0.00 0.00 0.00 97 1019.8
20260508010016 31 0.0 0.0 0.00 0.00 0.00 97 1019.8
20260508005016 31 0.0 1.0 0.00 0.00 0.00 97 1019.8
20260508004017 31 0.0 1.0 0.00 0.00 0.00 96 1019.7
20260508003017 32 0.0 0.0 0.00 0.00 0.00 97 1019.6
20260508002017 32 0.0 0.0 0.00 0.00 0.00 96 1019.6
20260508001016 32 0.0 1.0 0.00 0.00 0.00 96 1019.6
20260508000016 31 0.0 1.0 0.00 0.00 0.00 96 1019.5
20260507235017 31 0.0 0.0 0.00 0.00 0.00 96 1019.5
20260507234016 31 0.0 1.0 0.00 0.00 0.00 96 1019.4
20260507233037 31 0.0 0.0 0.00 0.00 0.00 95 1019.4
20260507232017 32 0.0 0.0 0.00 0.00 0.00 96 1019.3
20260507231017 32 0.0 0.0 0.00 0.00 0.00 95 1019.3
20260507230017 32 0.0 0.0 0.00 0.00 0.00 95 1019.2
20260507225056 33 0.0 0.0 0.00 0.00 0.00 95 1019.1
20260507224016 33 0.0 0.0 0.00 0.00 0.00 95 1019.1
20260507223016 33 0.0 0.0 0.00 0.00 0.00 95 1019.1
20260507222016 33 0.0 0.0 0.00 0.00 0.00 95 1019.1
20260507221016 33 0.0 0.0 0.00 0.00 0.00 95 1018.9
20260507220016 33 0.0 0.0 0.00 0.00 0.00 95 1018.9
20260507215017 32 0.0 0.0 0.00 0.00 0.00 94 1018.8
20260507214037 33 0.0 0.0 0.00 0.00 0.00 94 1018.8
20260507213017 33 0.0 0.0 0.00 0.00 0.00 93 1018.7
20260507212017 34 0.0 0.0 0.00 0.00 0.00 93 1018.6
20260507211017 34 0.0 1.0 0.00 0.00 0.00 92 1018.5
20260507210017 35 293 1.0 1.0 0.00 0.00 0.00 93 1018.4
20260507205017 35 0.0 0.0 0.00 0.00 0.00 91 1018.4
20260507204017 35 0.0 1.0 0.00 0.00 0.00 91 1018.3
20260507203017 36 0.0 1.0 0.00 0.00 0.00 90 1018.1
20260507202016 36 0.0 1.0 0.00 0.00 0.00 89 1018.0
20260507201017 37 225 1.0 1.0 0.00 0.00 0.00 88 1018.0
20260507200016 38 0.0 1.0 0.00 0.00 0.00 85 1017.9
20260507195016 39 0.0 0.0 0.00 0.00 0.00 82 1017.8
20260507194016 39 0.0 1.0 0.00 0.00 0.00 81 1017.7
20260507193016 40 0.0 1.0 0.00 0.00 0.00 79 1017.6
20260507192017 41 0.0 0.0 0.00 0.00 0.00 79 1017.5
20260507191016 41 293 1.0 4.0 0.00 0.00 0.00 78 1017.4
20260507190036 42 293 1.0 3.0 0.00 0.00 0.00 78 1017.3
20260507185036 43 0.0 2.0 0.00 0.00 0.00 77 1017.2
20260507184016 43 248 1.0 2.0 0.00 0.00 0.00 78 1017.2
20260507183016 43 293 2.0 7.0 0.00 0.00 0.00 79 1017.1
20260507182017 43 0.0 3.0 0.00 0.00 0.00 79 1017.0
20260507181016 43 23 2.0 4.0 0.00 0.00 0.00 78 1017.0
20260507180016 45 293 1.0 5.0 0.00 0.00 0.00 78 1016.9
20260507175016 44 293 1.0 3.0 0.00 0.00 0.00 79 1016.8
20260507173016 44 293 2.0 6.0 0.00 0.00 0.00 80 1016.6
20260507172016 43 293 2.0 7.0 0.00 0.00 0.00 80 1016.6
20260507171016 44 293 2.0 6.0 0.00 0.00 0.00 79 1016.5
20260507170036 44 293 3.0 5.0 0.00 0.00 0.00 78 1016.4
20260507165016 43 203 2.0 5.0 0.00 0.00 0.00 76 1016.2
20260507164016 45 225 4.0 7.0 0.00 0.00 0.00 74 1016.3
20260507163016 46 225 2.0 5.0 0.00 0.00 0.00 73 1016.1
20260507162016 45 270 2.0 5.0 0.00 0.00 0.00 76 1016.0
20260507161056 44 225 3.0 7.0 0.00 0.00 0.00 74 1016.0
20260507160036 44 225 1.0 4.0 0.00 0.00 0.00 75 1015.9
20260507155016 44 270 1.0 4.0 0.00 0.00 0.00 75 1015.9
20260507154016 45 225 2.0 6.0 0.00 0.00 0.00 72 1015.8
20260507153016 46 225 2.0 7.0 0.00 0.00 0.00 70 1015.7
20260507152016 45 248 2.0 10.0 0.00 0.00 0.00 73 1015.6
20260507151016 45 270 3.0 7.0 0.00 0.00 0.00 72 1015.8
20260507150016 46 293 4.0 9.0 0.00 0.00 0.00 72 1015.6
20260507145016 48 225 2.0 10.0 0.00 0.00 0.00 68 1015.6
20260507144016 47 248 3.0 7.0 0.00 0.00 0.00 71 1015.5
20260507143016 47 225 3.0 8.0 0.00 0.00 0.00 73 1015.4
20260507142016 47 225 3.0 9.0 0.00 0.00 0.00 73 1015.4
20260507141016 46 248 3.0 12.0 0.00 0.00 0.00 73 1015.3
20260507140016 46 135 2.0 6.0 0.00 0.00 0.00 73 1015.3
20260507135016 46 225 2.0 9.0 0.00 0.00 0.00 72 1015.2
20260507134036 46 248 3.0 9.0 0.00 0.00 0.00 75 1015.1
20260507133016 46 293 4.0 11.0 0.00 0.00 0.00 72 1015.1
20260507132016 47 248 2.0 6.0 0.00 0.00 0.00 72 1015.0
20260507131016 47 270 2.0 7.0 0.00 0.00 0.00 74 1015.1
20260507130016 48 203 3.0 9.0 0.00 0.00 0.00 70 1015.0
20260507125016 48 293 2.0 6.0 0.00 0.00 0.00 69 1015.1
20260507124016 48 225 1.0 4.0 0.00 0.00 0.00 70 1015.0
20260507123016 47 293 3.0 7.0 0.00 0.00 0.00 68 1015.0
20260507122016 48 180 2.0 5.0 0.00 0.00 0.00 72 1014.9
20260507121016 48 270 2.0 5.0 0.00 0.00 0.00 75 1014.9
20260507120015 46 293 2.0 5.0 0.00 0.00 0.00 81 1014.9
20260507115015 44 293 2.0 5.0 0.00 0.00 0.00 84 1014.9
20260507114016 45 293 4.0 9.0 0.00 0.00 0.00 83 1014.8
20260507113016 44 0 2.0 7.0 0.00 0.00 0.00 82 1014.8
20260507112016 43 293 1.0 3.0 0.00 0.00 0.00 82 1014.7
20260507111055 43 293 1.0 3.0 0.00 0.00 0.00 83 1014.6
20260507110016 44 293 1.0 5.0 0.00 0.00 0.00 81 1014.5
20260507105015 44 293 2.0 5.0 0.00 0.00 0.00 85 1014.4
20260507104016 43 293 2.0 7.0 0.00 0.00 0.00 83 1014.3
20260507103015 42 135 1.0 2.0 0.00 0.00 0.00 84 1014.3
20260507102016 42 225 1.0 3.0 0.00 0.00 0.00 85 1014.2
20260507101015 42 135 1.0 2.0 0.00 0.00 0.00 85 1014.1
20260507100036 41 135 1.0 6.0 0.00 0.00 0.00 84 1014.3
20260507095036 43 225 2.0 8.0 0.00 0.00 0.00 82 1014.2
20260507094016 43 158 2.0 5.0 0.00 0.00 0.00 84 1014.0
20260507093015 42 180 3.0 5.0 0.00 0.00 0.00 84 1014.0
20260507092016 42 135 2.0 5.0 0.00 0.00 0.00 86 1013.9
20260507091036 42 158 1.0 4.0 0.00 0.00 0.00 89 1013.9
20260507090015 40 248 1.0 2.0 0.00 0.00 0.00 90 1013.9
20260507085015 39 0.0 2.0 0.00 0.00 0.00 90 1013.9
20260507084015 38 135 1.0 2.0 0.00 0.00 0.00 89 1013.8
20260507083015 39 203 1.0 3.0 0.00 0.00 0.00 89 1013.8
20260507082015 39 180 1.0 5.0 0.00 0.00 0.00 89 1013.7
20260507081017 39 158 1.0 3.0 0.00 0.00 0.00 89 1013.7